Emporia, Virginia, United States (23847)
Lat: 36.69N, Lon: 77.54W
Wx Zone: VAZ087
Local Info
Past Weather Observations for Sunday, April 20, 2014

NOTE: This archive is for the closest National Weather Service station to Emporia. Information may differ from the station used for current weather conditions.

Time Weather Temperature Dewpoint Humidity Pressure Winds Precip Visibility
23:55
Partly Cloudy
43°F / 6°C 34°F / 1°C 71% 30.24 in
(1024 mb)
N 5.8 mph
(N 9 kph)
- 10SM
23:35
Clear
45°F / 7°C 34°F / 1°C 66% 30.27 in
(1025 mb)
NNW 4.6 mph
(NNW 7 kph)
- 10SM
23:15
Clear
45°F / 7°C 34°F / 1°C 66% 30.27 in
(1025 mb)
NNW 4.6 mph
(NNW 7 kph)
- 10SM
22:55
Clear
45°F / 7°C 34°F / 1°C 66% 30.27 in
(1025 mb)
N 6.9 mph
(N 11 kph)
- 10SM
22:35
Clear
45°F / 7°C 36°F / 2°C 71% 30.27 in
(1025 mb)
N 4.6 mph
(N 7 kph)
- 10SM
22:15
Clear
45°F / 7°C 36°F / 2°C 71% 30.27 in
(1025 mb)
NNW 4.6 mph
(NNW 7 kph)
- 10SM
21:55
Clear
46°F / 8°C 36°F / 2°C 66% 30.27 in
(1025 mb)
N 3.5 mph
(N 6 kph)
- 10SM
21:35
Clear
46°F / 8°C 34°F / 1°C 62% 30.27 in
(1025 mb)
N 3.5 mph
(N 6 kph)
- 10SM
21:15
Clear
48°F / 9°C 34°F / 1°C 58% 30.27 in
(1025 mb)
N 4.6 mph
(N 7 kph)
- 10SM
20:55
Clear
50°F / 10°C 32°F / 0°C 50% 30.27 in
(1025 mb)
N 4.6 mph
(N 7 kph)
- 10SM
20:35
Clear
50°F / 10°C 32°F / 0°C 50% 30.27 in
(1025 mb)
NNE 5.8 mph
(NNE 9 kph)
- 10SM
20:15
Clear
50°F / 10°C 34°F / 1°C 54% 30.27 in
(1025 mb)
N 5.8 mph
(N 9 kph)
- 10SM
19:55
Clear
50°F / 10°C 34°F / 1°C 54% 30.27 in
(1025 mb)
N 4.6 mph
(N 7 kph)
- 10SM
19:35
Clear
52°F / 11°C 34°F / 1°C 50% 30.27 in
(1025 mb)
N 8.1 mph
(N 13 kph)
- 10SM
19:15
Clear
52°F / 11°C 34°F / 1°C 50% 30.27 in
(1025 mb)
N 3.5 mph
(N 6 kph)
- 10SM
18:55
Clear
54°F / 12°C 34°F / 1°C 47% 30.27 in
(1025 mb)
NNE 6.9 mph
(NNE 11 kph)
- 10SM
18:35
Clear
54°F / 12°C 34°F / 1°C 47% 30.27 in
(1025 mb)
N 4.6 mph
(N 7 kph)
- 10SM
18:15
Clear
54°F / 12°C 34°F / 1°C 47% 30.27 in
(1025 mb)
NNE 6.9 mph
(NNE 11 kph)
- 10SM
17:55
Clear
55°F / 13°C 32°F / 0°C 41% 30.27 in
(1025 mb)
NE 8.1 mph
(NE 13 kph)
- 10SM
17:35
Clear
57°F / 14°C 34°F / 1°C 41% 30.27 in
(1025 mb)
N 9.2 mph
(N 15 kph)
- 10SM
17:15
Clear
57°F / 14°C 36°F / 2°C 44% 30.27 in
(1025 mb)
N 8.1 mph
(N 13 kph)
- 10SM
16:55
Clear
59°F / 15°C 36°F / 2°C 42% 30.27 in
(1025 mb)
N 11.5 mph
(N 19 kph)
- 10SM
16:35
Clear
59°F / 15°C 34°F / 1°C 39% 30.27 in
(1025 mb)
N 15 mph
(N 24 kph)
- 10SM
16:15
Clear
61°F / 16°C 36°F / 2°C 39% 30.27 in
(1025 mb)
NNE 10.4 mph
(NNE 17 kph)
- 10SM
15:55
Clear
61°F / 16°C 36°F / 2°C 39% 30.27 in
(1025 mb)
NNE 13.8 mph
(NNE 22 kph)
- 10SM
15:35
Clear
61°F / 16°C 39°F / 4°C 45% 30.27 in
(1025 mb)
N 12.7 mph
(N 20 kph)
- 10SM
15:15
Partly Cloudy
61°F / 16°C 41°F / 5°C 48% 30.27 in
(1025 mb)
N 11.5 mph
(N 19 kph)
- 10SM
14:55
Partly Cloudy
61°F / 16°C 41°F / 5°C 48% 30.27 in
(1025 mb)
NNE 13.8 mph
(NNE 22 kph)
- 10SM
14:35
Mostly Cloudy
61°F / 16°C 41°F / 5°C 48% 30.27 in
(1025 mb)
NNE 12.7 mph
(NNE 20 kph)
- 10SM
14:15
Mostly Cloudy
61°F / 16°C 41°F / 5°C 48% 30.27 in
(1025 mb)
N 13.8 mph
(N 22 kph)
- 10SM
13:55
Overcast
61°F / 16°C 41°F / 5°C 48% 30.3 in
(1026 mb)
NNE 13.8 mph
(NNE 22 kph)
- 10SM
13:35
Overcast
61°F / 16°C 41°F / 5°C 48% 30.3 in
(1026 mb)
N 9.2 mph
(N 15 kph)
-
13:15
Overcast
61°F / 16°C 43°F / 6°C 52% 30.3 in
(1026 mb)
N 11.5 mph
(N 19 kph)
- 10SM
12:55
Overcast
61°F / 16°C 43°F / 6°C 52% 30.3 in
(1026 mb)
N 12.7 mph
(N 20 kph)
- 10SM
12:35
Mostly Cloudy
63°F / 17°C 43°F / 6°C 49% 30.3 in
(1026 mb)
N 12.7 mph
(N 20 kph)
- 10SM
12:15
Mostly Cloudy
63°F / 17°C 43°F / 6°C 49% 30.3 in
(1026 mb)
NE 17.3 mph
(NE 28 kph)
- 10SM
11:55
Mostly Cloudy
61°F / 16°C 43°F / 6°C 52% 30.3 in
(1026 mb)
NE 11.5 mph
(NE 19 kph)
- 10SM
11:35
Partly Cloudy
61°F / 16°C 41°F / 5°C 48% 30.3 in
(1026 mb)
NE 11.5 mph
(NE 19 kph)
- 10SM
11:15
Mostly Cloudy
61°F / 16°C 41°F / 5°C 48% 30.3 in
(1026 mb)
NE 15 mph
(NE 24 kph)
- 10SM
10:55
Mostly Cloudy
59°F / 15°C 41°F / 5°C 51% 30.3 in
(1026 mb)
NE 16.1 mph
(NE 26 kph)
- 10SM
10:35
Overcast
59°F / 15°C 41°F / 5°C 51% 30.3 in
(1026 mb)
N 13.8 mph
(N 22 kph)
- 10SM
10:15
Overcast
59°F / 15°C 39°F / 4°C 48% 30.3 in
(1026 mb)
NNE 15 mph
(NNE 24 kph)
- 10SM
09:55
Mostly Cloudy
57°F / 14°C 37°F / 3°C 48% 30.3 in
(1026 mb)
N 15 mph
(N 24 kph)
- 10SM
09:35
Clear
57°F / 14°C 39°F / 4°C 51% 30.3 in
(1026 mb)
NNE 11.5 mph
(NNE 19 kph)
- 10SM
09:15
Clear
55°F / 13°C 37°F / 3°C 51% 30.3 in
(1026 mb)
N 11.5 mph
(N 19 kph)
- 10SM
08:55
Clear
55°F / 13°C 37°F / 3°C 51% 30.3 in
(1026 mb)
N 13.8 mph
(N 22 kph)
- 10SM
08:35
Clear
54°F / 12°C 37°F / 3°C 54% 30.3 in
(1026 mb)
N 9.2 mph
(N 15 kph)
- 10SM
08:15
Clear
52°F / 11°C 37°F / 3°C 58% 30.3 in
(1026 mb)
N 9.2 mph
(N 15 kph)
- 10SM
07:55
Clear
52°F / 11°C 37°F / 3°C 58% 30.27 in
(1025 mb)
N 9.2 mph
(N 15 kph)
- 10SM
07:35
Clear
50°F / 10°C 36°F / 2°C 58% 30.27 in
(1025 mb)
N 10.4 mph
(N 17 kph)
- 10SM
07:15
Clear
48°F / 9°C 36°F / 2°C 62% 30.27 in
(1025 mb)
N 9.2 mph
(N 15 kph)
- 10SM
06:55
Clear
48°F / 9°C 36°F / 2°C 62% 30.27 in
(1025 mb)
N 10.4 mph
(N 17 kph)
- 10SM
06:35
Clear
48°F / 9°C 36°F / 2°C 62% 30.27 in
(1025 mb)
N 9.2 mph
(N 15 kph)
- 10SM
06:15
Clear
46°F / 8°C 36°F / 2°C 66% 30.27 in
(1025 mb)
N 10.4 mph
(N 17 kph)
- 10SM
05:55
Clear
46°F / 8°C 36°F / 2°C 66% 30.24 in
(1024 mb)
NNW 8.1 mph
(NNW 13 kph)
-
05:35
Clear
46°F / 8°C 36°F / 2°C 66% 30.24 in
(1024 mb)
NNW 6.9 mph
(NNW 11 kph)
- 10SM
05:15
Clear
46°F / 8°C 36°F / 2°C 66% 30.24 in
(1024 mb)
N 6.9 mph
(N 11 kph)
- 10SM
04:55
Clear
46°F / 8°C 36°F / 2°C 66% 30.24 in
(1024 mb)
N 9.2 mph
(N 15 kph)
- 10SM
04:35
Clear
46°F / 8°C 34°F / 1°C 62% 30.24 in
(1024 mb)
N 8.1 mph
(N 13 kph)
- 10SM
04:15
Clear
46°F / 8°C 36°F / 2°C 66% 30.24 in
(1024 mb)
NNW 8.1 mph
(NNW 13 kph)
- 10SM
03:55
Clear
46°F / 8°C 36°F / 2°C 66% 30.24 in
(1024 mb)
NNW 5.8 mph
(NNW 9 kph)
- 10SM
03:35
Clear
46°F / 8°C 36°F / 2°C 66% 30.24 in
(1024 mb)
NNW 6.9 mph
(NNW 11 kph)
- 10SM
03:15
Clear
46°F / 8°C 36°F / 2°C 66% 30.24 in
(1024 mb)
NNW 5.8 mph
(NNW 9 kph)
- 10SM
02:55
Clear
46°F / 8°C 36°F / 2°C 66% 30.24 in
(1024 mb)
NNW 5.8 mph
(NNW 9 kph)
- 10SM
02:35
Clear
48°F / 9°C 37°F / 3°C 66% 30.24 in
(1024 mb)
N 5.8 mph
(N 9 kph)
- 10SM
02:15
Clear
48°F / 9°C 37°F / 3°C 66% 30.24 in
(1024 mb)
N 4.6 mph
(N 7 kph)
- 10SM
01:55
Clear
48°F / 9°C 39°F / 4°C 71% 30.24 in
(1024 mb)
NNW 6.9 mph
(NNW 11 kph)
- 10SM
01:35
Clear
48°F / 9°C 41°F / 5°C 76% 30.24 in
(1024 mb)
NNW 4.6 mph
(NNW 7 kph)
- 10SM
01:15
Clear
48°F / 9°C 41°F / 5°C 76% 30.24 in
(1024 mb)
NNW 6.9 mph
(NNW 11 kph)
- 10SM
00:55
Clear
50°F / 10°C 41°F / 5°C 71% 30.24 in
(1024 mb)
N 4.6 mph
(N 7 kph)
- 10SM
00:35
Clear
50°F / 10°C 43°F / 6°C 76% 30.24 in
(1024 mb)
NNW 3.5 mph
(NNW 6 kph)
- 10SM
00:15
Partly Cloudy
50°F / 10°C 43°F / 6°C 76% 30.27 in
(1025 mb)
N 5.8 mph
(N 9 kph)
- 10SM
Time Weather Temperature Dewpoint Humidity Pressure Winds Precip Visibility


Weather for websites

WeatherForYou.com, LLC is not responsible for any damages or problems caused by this service. Current weather conditions are obtained from the closest station including government and personal stations which may have varying degrees of accuracy. Weather forecasts are derived from the NOAA NDFD. Like all things, this site belongs to Jesus Christ... He just trusts me to maintain it. If you have any questions or comments email webmaster@weatherforyou.com

Copyright © 2014, WeatherForYou.com LLC. All rights reserved.